Wind_Speed
13 13 13 13 15 15 14 13 13 14 14 13 13 12 12 11 9 6 4 4 5 6 8 8 9 9 9 8 8 8 9 9 10 10 9 9 9 9 8 8 8 7 7 6 6 5 5 5 5
13 12 12 13 15 11 12 12 13 13 13 13 12 12 12 11 9 6 3 3 4 5 7 8 9 9 9 9 8 8 8 9 9 9 9 8 8 8 8 8 7 7 6 6 5 5 5 4 4
12 11 11 12 12 9 10 10 10 11 12 12 13 12 12 11 9 6 4 2 3 5 6 8 9 9 9 9 8 8 8 8 8 8 8 8 8 8 8 7 7 7 6 6 5 5 4 4 4
11 11 10 10 8 8 9 9 9 10 11 12 13 13 12 11 9 7 4 2 1 3 6 7 9 9 9 9 8 7 8 8 7 8 7 7 7 7 7 7 7 6 6 5 5 5 4 4 4
11 11 11 7 5 7 8 8 8 10 11 12 12 12 12 11 10 8 6 3 1 2 5 7 9 9 10 9 9 8 8 8 7 7 7 6 6 6 7 6 6 6 5 5 5 4 4 4 4
10 11 9 5 5 6 7 8 8 9 10 10 11 12 12 12 11 9 7 5 3 2 4 7 9 10 10 10 9 9 9 8 8 7 6 6 5 6 6 6 5 5 4 4 4 4 4 3 3
9 9 7 6 5 6 7 7 7 7 8 9 10 11 12 13 13 11 9 7 4 3 4 6 9 10 11 11 10 10 10 9 9 7 6 6 5 5 5 5 4 4 4 4 4 4 3 3 2
8 8 7 6 5 5 7 7 6 7 7 8 9 11 12 13 13 13 11 8 6 4 5 6 9 10 11 11 11 11 10 10 9 8 7 6 5 5 4 4 4 3 3 3 3 3 3 2 2
7 6 4 4 5 5 6 6 5 6 6 8 9 11 12 13 13 13 12 10 8 5 5 6 8 10 11 12 12 12 12 11 10 9 8 7 5 5 4 4 3 3 3 3 3 2 2 2 2
6 5 3 5 5 4 5 6 5 5 6 8 9 10 12 13 14 13 12 11 9 6 6 7 8 10 11 12 12 12 13 12 11 10 9 8 6 5 4 4 3 3 3 2 2 2 2 2 2
6 4 4 5 5 4 5 5 5 5 6 8 9 10 12 13 14 13 13 11 9 7 6 7 9 11 12 12 13 13 14 13 12 11 10 9 7 6 5 4 3 3 3 2 2 2 2 2 2
6 5 5 6 5 5 5 5 5 6 6 7 9 11 13 13 13 14 13 12 10 8 6 8 10 11 13 14 14 15 14 14 14 12 11 9 8 6 5 5 4 3 3 2 2 2 2 2 2
6 6 6 7 7 6 4 4 5 6 7 7 9 11 13 13 13 13 13 12 10 8 8 8 9 11 13 15 16 16 16 15 15 14 13 11 9 8 7 6 5 4 3 2 2 2 2 2 2
7 7 8 8 7 6 4 5 6 8 7 8 9 11 13 13 13 13 14 13 11 9 9 8 10 12 12 15 17 17 16 16 16 15 14 13 11 10 8 7 6 5 4 3 2 2 2 2 3
8 8 9 9 8 7 6 6 8 9 9 9 10 11 12 13 13 13 13 13 11 10 9 8 7 9 12 15 17 17 17 17 17 17 15 14 13 11 10 8 7 6 5 4 3 3 3 3 3
9 10 10 11 10 8 7 8 10 10 10 10 11 11 12 13 13 13 13 12 11 11 10 7 6 8 10 13 16 17 18 17 18 18 16 15 14 13 11 10 8 7 6 5 4 3 3 3 3
10 11 11 12 10 10 9 9 11 11 11 11 11 12 13 13 13 13 13 12 11 11 10 7 7 8 9 11 14 15 17 18 18 18 18 17 16 15 13 11 10 9 8 6 5 4 4 3 3
12 12 12 12 12 11 10 11 12 12 12 12 13 13 14 14 14 14 13 12 12 11 10 8 7 7 9 11 13 14 17 18 19 19 18 18 17 16 15 13 12 10 9 7 6 5 4 4 3
13 13 12 12 12 11 11 11 12 13 13 13 14 14 14 14 13 13 12 12 11 10 10 9 8 8 9 10 13 13 15 18 19 19 19 18 17 16 16 15 13 12 10 9 8 7 6 5 5
14 13 13 14 13 12 11 12 13 14 14 14 14 14 14 13 12 12 12 12 11 10 9 9 8 7 7 9 10 12 13 15 17 18 18 18 17 17 16 16 15 13 12 10 9 8 8 7 6
15 14 15 15 13 13 12 12 13 14 14 14 13 13 13 13 12 12 12 11 11 10 10 9 7 7 7 8 9 11 12 14 15 16 17 18 18 18 16 16 16 14 13 11 10 9 9 9 8
17 16 16 15 13 13 13 10 13 14 14 14 13 12 12 12 12 12 12 11 11 10 10 9 8 7 7 7 8 10 12 13 14 15 17 17 18 18 18 17 16 15 14 13 11 11 11 10 10
18 18 16 15 14 14 14 11 11 14 12 12 12 11 10 10 11 11 11 11 11 10 10 9 9 8 7 7 8 10 11 13 14 15 16 17 18 18 18 18 17 16 16 14 13 12 12 12 12
19 17 16 15 14 14 13 12 10 12 12 11 11 10 10 10 10 10 10 10 10 9 8 8 8 7 7 7 8 10 11 12 13 14 16 17 18 19 20 19 18 17 17 16 15 14 14 14 14
18 16 15 14 13 13 14 12 12 12 12 11 11 10 10 10 10 9 9 10 9 9 8 9 8 7 7 7 8 10 11 11 12 14 15 16 18 19 20 20 19 19 18 18 17 17 16 16 16
18 17 15 13 12 12 15 12 12 12 11 10 9 9 9 9 8 8 9 9 8 8 8 8 7 7 7 8 8 9 11 12 13 14 15 16 17 19 20 20 20 20 20 20 19 19 18 18 17
20 18 17 16 15 13 13 13 11 11 10 9 8 8 8 8 8 8 8 7 7 8 8 8 7 7 7 8 8 10 11 12 13 15 15 16 16 18 19 20 21 21 22 21 21 20 20 20 20
20 20 19 17 14 12 12 11 10 10 9 8 8 8 8 8 8 8 8 8 8 8 8 8 8 8 7 8 9 9 11 12 13 14 15 16 16 17 19 20 20 21 22 23 23 22 22 21 21
21 20 19 17 16 12 10 11 11 10 9 9 9 9 9 9 9 8 9 9 9 9 8 8 7 7 7 8 9 9 10 11 13 14 14 15 16 18 20 20 21 21 21 22 21 21 21 21 22
21 20 20 18 17 15 12 12 13 10 9 10 10 10 10 10 10 9 9 10 10 10 9 8 8 8 8 9 9 10 10 11 12 13 14 15 15 16 18 19 20 20 21 21 22 22 21 21 22
Wind_Direction
78 75 70 67 62 62 63 63 65 67 67 67 67 67 68 68 72 83 109 141 155 169 177 175 176 176 173 173 171 163 151 141 130 121 114 109 104 99 96 95 96 95 99 103 105 107 111 118 121
76 74 68 65 69 64 58 61 66 67 66 65 65 65 65 63 63 68 85 131 155 170 182 183 184 183 180 177 174 169 157 145 135 126 118 111 106 101 97 96 97 98 102 107 109 110 114 119 125
70 70 67 66 70 66 55 52 61 63 61 60 60 59 59 55 54 52 56 105 167 183 190 192 194 189 186 183 179 173 165 155 144 132 124 118 111 104 99 99 99 100 104 110 113 111 114 117 124
64 66 66 67 62 49 44 46 51 58 56 54 54 53 50 46 42 36 31 33 197 202 200 200 195 192 191 189 187 182 173 165 154 139 130 124 118 110 104 102 101 101 105 112 115 115 117 119 123
60 62 65 66 50 37 32 36 44 54 55 53 51 47 40 35 31 25 17 9 321 224 211 206 201 197 195 191 188 185 176 168 160 147 139 133 127 119 114 107 104 104 108 112 113 114 117 118 121
56 59 69 61 31 31 27 29 37 49 51 49 47 40 31 27 24 19 5 355 331 268 226 214 209 206 202 196 193 189 183 175 167 157 150 144 137 131 125 114 108 109 112 111 112 113 114 114 121
48 56 58 48 35 26 19 20 29 41 41 42 40 33 26 24 20 14 3 350 329 281 250 221 212 210 208 204 200 195 189 186 180 174 167 157 149 141 133 122 114 114 116 114 115 116 118 115 117
42 49 47 34 28 13 12 15 24 29 33 32 31 27 21 20 15 11 4 353 336 299 259 231 216 212 211 209 206 201 196 193 189 184 178 172 165 155 145 139 126 122 122 124 123 122 125 126 124
31 43 36 16 12 4 6 8 14 15 22 22 18 16 16 11 7 2 359 352 339 318 271 244 224 215 210 209 209 206 203 200 195 190 186 183 180 173 164 152 139 135 131 133 132 126 136 134 137
17 34 7 5 1 359 360 2 2 1 9 9 4 1 4 2 360 356 354 349 340 321 284 254 229 218 215 212 212 211 209 206 200 196 194 192 190 189 185 170 156 148 142 142 137 137 148 153 154
358 354 349 351 340 338 343 350 353 354 356 354 352 351 354 355 352 351 348 345 338 323 289 259 237 223 218 216 216 213 213 211 207 203 200 197 192 192 190 182 176 168 157 150 140 140 154 170 177
337 336 335 335 329 327 328 334 336 334 337 337 337 342 348 351 349 347 345 341 334 321 297 269 245 232 223 220 218 216 216 215 213 210 207 203 199 197 196 191 188 182 176 166 157 158 173 191 201
319 324 325 324 322 321 325 321 319 314 320 328 329 333 339 344 345 344 343 340 335 321 303 274 256 241 230 222 221 219 218 218 217 215 211 208 206 204 200 198 200 197 191 190 189 190 195 199 207
307 310 314 316 318 326 323 311 308 312 311 315 322 326 331 336 340 340 341 338 333 323 307 286 267 247 235 225 224 221 221 221 218 217 214 212 211 209 204 203 207 209 212 220 222 224 217 209 214
300 302 305 308 309 315 315 307 303 307 309 309 315 319 325 330 336 338 339 336 329 322 313 301 272 247 238 231 228 223 221 222 221 219 217 214 213 212 209 208 210 216 219 229 237 240 236 227 220
294 296 298 303 309 311 307 292 300 303 305 305 309 313 319 325 330 332 334 336 331 324 317 309 271 250 247 237 230 228 223 223 222 220 218 216 214 214 213 214 215 220 221 225 234 238 233 224 221
288 288 288 295 304 309 308 298 301 302 302 302 303 306 310 318 322 327 330 334 333 327 321 315 288 264 257 241 233 231 226 224 224 221 220 220 218 218 218 218 219 223 225 227 228 233 227 221 220
279 280 283 289 299 307 309 306 303 301 299 299 301 301 304 309 315 322 324 328 329 326 322 315 300 278 264 246 236 233 229 224 222 221 222 223 221 221 221 221 222 223 224 226 228 231 229 227 223
278 277 279 286 295 304 307 305 302 303 298 298 298 297 299 303 311 317 322 326 327 327 324 319 303 286 268 247 237 233 229 223 221 220 223 224 224 221 220 221 222 222 224 228 230 229 231 235 232
276 274 274 280 291 300 305 303 301 301 297 295 296 295 296 297 305 313 318 322 324 321 321 319 310 298 268 253 244 235 228 222 221 223 222 223 223 222 222 223 223 224 225 227 229 231 235 237 233
272 270 270 277 290 297 304 307 301 299 297 296 295 294 294 296 300 307 311 315 318 315 315 315 307 301 279 257 245 231 225 223 223 220 223 225 225 224 225 225 224 225 225 227 231 234 235 237 233
267 267 270 277 283 287 298 295 297 300 298 297 294 293 295 298 298 303 309 312 313 311 311 309 300 293 280 261 241 230 227 227 226 224 224 227 228 225 224 223 223 225 227 229 234 238 239 237 235
264 266 269 274 278 285 293 294 292 298 299 297 296 296 299 298 299 303 307 308 312 308 305 302 298 287 275 250 236 228 233 234 229 228 229 231 232 230 227 225 226 228 231 234 236 239 240 239 238
263 266 269 272 275 280 284 288 290 292 295 295 294 294 297 297 301 303 305 307 311 313 307 302 295 283 275 250 238 233 238 238 233 231 230 231 232 231 229 228 229 232 235 237 237 239 240 241 242
259 260 262 266 270 274 278 285 284 287 292 292 292 290 291 294 296 297 300 305 311 316 313 302 294 284 276 257 245 241 238 237 233 231 232 233 233 234 230 230 232 234 236 237 237 239 240 243 244
253 251 247 247 257 266 280 283 285 290 292 292 290 289 286 289 291 294 299 301 306 312 313 304 292 285 275 267 256 249 238 236 236 235 236 235 235 236 233 232 235 235 236 238 239 242 243 244 246
251 249 247 248 251 255 268 280 287 287 292 291 286 287 285 284 286 295 301 302 305 309 308 304 293 286 275 271 265 256 248 242 241 241 241 239 239 238 235 235 237 237 239 241 243 244 245 246 248
249 247 245 246 247 254 267 278 278 285 290 288 285 284 280 278 283 292 295 295 300 304 305 300 289 284 276 272 270 265 256 248 246 244 241 240 240 238 234 236 238 238 240 243 245 246 247 248 250
249 247 247 245 242 242 256 266 270 279 283 284 286 286 283 279 283 288 293 294 298 303 304 300 291 281 278 276 272 268 261 255 250 245 243 241 241 238 236 239 240 241 243 244 245 247 248 250 251
248 246 245 242 246 245 242 258 270 276 277 278 282 283 281 276 277 281 291 296 296 298 296 295 287 283 279 281 276 269 266 262 253 247 241 244 244 240 239 240 243 245 244 243 246 249 249 251 253
Height
5899 5898 5898 5899 5899 5900 5899 5898 5896 5894 5893 5892 5890 5889 5888 5888 5889 5891 5888 5887 5887 5888 5888 5889 5890 5891 5892 5892 5893 5894 5894 5894 5894 5894 5894 5894 5895 5895 5895 5895 5895 5895 5895 5895 5895 5896 5896 5896 5896
5900 5900 5900 5901 5902 5903 5901 5899 5898 5896 5894 5893 5891 5890 5889 5888 5888 5888 5887 5887 5887 5887 5888 5889 5890 5891 5892 5892 5893 5894 5894 5894 5894 5894 5895 5895 5895 5895 5895 5895 5895 5895 5895 5896 5896 5896 5896 5896 5896
5901 5901 5902 5902 5903 5903 5902 5900 5898 5896 5895 5893 5892 5891 5890 5889 5888 5887 5887 5887 5887 5887 5888 5888 5889 5890 5891 5892 5893 5894 5894 5894 5894 5895 5895 5895 5895 5895 5895 5895 5895 5895 5896 5896 5896 5896 5896 5896 5896
5902 5903 5904 5904 5904 5903 5902 5901 5899 5897 5896 5894 5893 5892 5891 5889 5888 5888 5887 5886 5886 5886 5886 5887 5888 5889 5891 5892 5893 5893 5894 5894 5895 5895 5895 5895 5896 5896 5896 5896 5896 5896 5896 5896 5896 5896 5896 5896 5896
5903 5904 5905 5906 5905 5904 5903 5901 5899 5898 5897 5895 5894 5892 5891 5890 5888 5887 5886 5886 5885 5885 5885 5886 5887 5888 5890 5891 5892 5893 5893 5894 5895 5895 5895 5896 5896 5896 5896 5896 5896 5896 5896 5896 5896 5896 5896 5896 5896
5904 5905 5907 5907 5905 5904 5903 5902 5900 5899 5897 5896 5895 5893 5891 5890 5888 5887 5886 5885 5884 5884 5884 5885 5886 5887 5888 5890 5891 5892 5893 5894 5895 5895 5895 5895 5896 5896 5896 5896 5896 5896 5896 5896 5896 5896 5896 5896 5896
5905 5906 5906 5907 5906 5905 5904 5902 5901 5899 5898 5897 5895 5894 5892 5890 5888 5887 5885 5884 5883 5882 5883 5883 5884 5886 5887 5888 5890 5891 5892 5893 5894 5895 5895 5895 5896 5896 5896 5896 5896 5896 5896 5897 5897 5896 5897 5897 5897
5904 5906 5906 5906 5906 5905 5904 5903 5901 5900 5899 5897 5895 5894 5892 5890 5888 5886 5885 5883 5882 5881 5881 5882 5882 5884 5885 5887 5888 5890 5891 5892 5893 5894 5894 5895 5895 5895 5895 5896 5896 5896 5896 5896 5896 5897 5897 5897 5897
5904 5906 5906 5906 5905 5905 5904 5903 5901 5900 5899 5897 5895 5894 5892 5890 5888 5886 5884 5882 5881 5880 5880 5880 5881 5882 5883 5885 5887 5888 5889 5891 5892 5893 5893 5894 5895 5895 5895 5895 5895 5896 5896 5896 5896 5896 5897 5897 5897
5904 5906 5906 5904 5904 5903 5903 5902 5901 5900 5899 5897 5895 5893 5891 5889 5887 5885 5883 5881 5880 5879 5879 5879 5879 5880 5882 5883 5885 5886 5888 5889 5890 5892 5892 5893 5894 5894 5895 5895 5895 5895 5896 5896 5896 5896 5896 5896 5897
5903 5904 5903 5903 5902 5902 5902 5901 5900 5900 5899 5897 5895 5893 5890 5888 5886 5884 5882 5880 5878 5877 5877 5877 5877 5878 5879 5881 5883 5884 5886 5888 5889 5890 5891 5892 5893 5893 5894 5894 5895 5895 5895 5895 5896 5896 5896 5896 5897
5903 5902 5902 5902 5901 5901 5900 5900 5900 5899 5898 5896 5894 5892 5889 5887 5885 5882 5881 5879 5877 5876 5875 5875 5875 5876 5877 5878 5880 5882 5884 5886 5887 5889 5890 5891 5892 5893 5893 5894 5894 5895 5895 5895 5895 5896 5896 5896 5896
5902 5901 5901 5900 5900 5899 5899 5899 5898 5898 5897 5895 5893 5891 5888 5886 5884 5881 5879 5877 5875 5874 5873 5872 5872 5873 5874 5876 5878 5880 5882 5884 5885 5887 5888 5890 5891 5892 5893 5893 5894 5894 5894 5895 5895 5895 5895 5896 5896
5900 5900 5900 5899 5899 5898 5898 5898 5897 5896 5895 5893 5891 5889 5887 5884 5882 5880 5878 5876 5874 5872 5871 5869 5868 5869 5872 5873 5875 5877 5879 5881 5883 5885 5886 5888 5889 5891 5892 5893 5893 5894 5894 5894 5895 5895 5895 5895 5895
5898 5898 5898 5898 5897 5897 5897 5897 5896 5894 5893 5892 5890 5888 5886 5883 5881 5879 5877 5874 5872 5870 5869 5868 5867 5867 5869 5870 5872 5874 5876 5878 5880 5882 5884 5886 5888 5889 5890 5892 5892 5893 5893 5894 5894 5894 5894 5894 5895
5897 5897 5897 5897 5896 5895 5897 5897 5894 5893 5892 5890 5888 5886 5884 5882 5880 5878 5875 5873 5871 5869 5867 5866 5865 5866 5867 5868 5869 5871 5873 5875 5878 5880 5882 5884 5886 5888 5889 5890 5891 5892 5892 5893 5893 5893 5893 5894 5894
5895 5895 5895 5895 5894 5893 5894 5894 5892 5891 5890 5889 5887 5885 5883 5881 5879 5876 5874 5871 5869 5867 5865 5864 5864 5864 5864 5865 5867 5868 5870 5873 5875 5877 5880 5882 5884 5886 5887 5889 5890 5891 5891 5892 5892 5892 5892 5893 5893
5893 5893 5893 5892 5892 5891 5891 5891 5890 5889 5888 5886 5885 5883 5881 5879 5877 5874 5872 5870 5868 5866 5864 5863 5862 5862 5862 5863 5864 5865 5867 5870 5872 5875 5878 5880 5882 5883 5885 5887 5888 5889 5890 5891 5891 5891 5892 5892 5892
5890 5890 5890 5890 5889 5889 5889 5888 5887 5886 5885 5884 5883 5881 5879 5877 5875 5873 5870 5868 5866 5864 5863 5861 5860 5860 5860 5860 5862 5863 5865 5867 5869 5872 5875 5877 5879 5881 5883 5885 5886 5887 5888 5889 5889 5890 5891 5891 5891
5886 5887 5887 5886 5886 5887 5887 5886 5885 5883 5882 5881 5880 5878 5876 5875 5873 5871 5869 5866 5864 5863 5861 5860 5859 5858 5858 5858 5859 5861 5863 5864 5867 5869 5872 5875 5877 5878 5880 5882 5884 5885 5886 5887 5888 5889 5890 5890 5891
5883 5883 5883 5883 5884 5884 5884 5884 5882 5881 5879 5878 5877 5875 5873 5872 5870 5869 5867 5865 5863 5861 5860 5858 5857 5856 5856 5856 5857 5859 5861 5863 5865 5867 5870 5872 5874 5876 5877 5880 5881 5883 5884 5885 5886 5887 5888 5889 5889
5879 5879 5880 5880 5881 5882 5882 5883 5881 5878 5877 5875 5874 5872 5871 5869 5868 5866 5865 5863 5861 5859 5858 5856 5855 5854 5854 5854 5855 5856 5858 5860 5862 5864 5867 5869 5871 5873 5875 5877 5879 5880 5882 5883 5884 5885 5886 5887 5888
5875 5875 5876 5877 5878 5879 5878 5879 5880 5875 5874 5872 5871 5870 5868 5867 5865 5864 5862 5860 5859 5857 5856 5855 5853 5852 5851 5851 5853 5854 5856 5858 5860 5862 5864 5866 5868 5870 5872 5874 5876 5878 5879 5881 5881 5882 5883 5885 5886
5871 5872 5873 5874 5875 5876 5876 5876 5876 5874 5871 5870 5868 5867 5866 5864 5863 5861 5860 5858 5856 5855 5854 5853 5852 5851 5850 5850 5851 5852 5854 5855 5857 5858 5860 5862 5864 5866 5869 5871 5872 5874 5876 5877 5879 5880 5881 5882 5883
5867 5869 5871 5872 5873 5874 5872 5872 5872 5869 5868 5867 5866 5864 5863 5862 5860 5859 5857 5856 5854 5853 5852 5851 5850 5849 5849 5849 5849 5850 5851 5852 5854 5855 5857 5859 5861 5863 5865 5867 5869 5870 5872 5874 5875 5876 5878 5879 5880
5862 5865 5868 5871 5873 5872 5868 5868 5869 5866 5865 5864 5863 5862 5861 5859 5858 5856 5855 5854 5852 5851 5850 5848 5848 5847 5847 5847 5847 5848 5848 5850 5851 5853 5854 5856 5857 5859 5861 5863 5865 5866 5868 5870 5871 5872 5874 5875 5876
5857 5859 5863 5865 5866 5867 5867 5866 5865 5863 5862 5861 5860 5859 5858 5857 5856 5854 5853 5852 5850 5849 5848 5847 5846 5845 5845 5845 5845 5845 5846 5847 5849 5850 5851 5852 5853 5854 5856 5858 5860 5862 5864 5866 5867 5868 5869 5871 5872
5853 5855 5857 5860 5862 5864 5865 5864 5863 5860 5859 5859 5858 5857 5856 5855 5854 5852 5851 5850 5849 5847 5846 5845 5844 5843 5843 5843 5843 5843 5843 5844 5845 5846 5847 5849 5850 5851 5852 5854 5856 5858 5859 5861 5862 5863 5865 5866 5867
5849 5851 5852 5855 5858 5861 5863 5864 5859 5858 5857 5856 5855 5854 5853 5852 5851 5850 5849 5848 5847 5846 5844 5843 5842 5841 5841 5841 5841 5841 5841 5841 5842 5843 5844 5845 5846 5847 5848 5850 5851 5853 5855 5856 5858 5859 5860 5861 5862
5843 5846 5848 5852 5853 5855 5858 5861 5855 5855 5854 5853 5852 5851 5851 5850 5849 5848 5847 5846 5845 5844 5843 5842 5841 5840 5839 5839 5838 5838 5838 5838 5839 5839 5840 5842 5842 5843 5844 5846 5847 5849 5850 5852 5853 5854 5855 5856 5856